Liberia, Costa Rica

5:14 PM CST on September 28, 2016 (GMT -0600)
Daniel Oduber Quiros International

Weather History for MRLB - February, 2013

Change the Weather History Date:

Saturday, February 9, 2013

  Actual Average Record
Temperature  
Mean Temperature 84 °F -  
Max Temperature 93 °F 90 °F 95 °F (1998)
Min Temperature 75 °F 74 °F 59 °F (2007)
Cooling Degree Days 19    
Growing Degree Days 34 (Base 50)    
Moisture  
Dew Point 59 °F    
Average Humidity 42    
Maximum Humidity 61    
Minimum Humidity 4    
Precipitation  
Precipitation 0.00 in - - ()
Sea Level Pressure  
Sea Level Pressure 29.85 in    
Wind  
Wind Speed 18 mph ()    
Max Wind Speed 30 mph    
Max Gust Speed 41 mph    
Visibility 8.3 miles    
Events      
Averages and records for this station are not official NWS values.
T = Trace of Precipitation, MM = Missing Value Source: Averaged Metar Reports

Daily Weather History Graph

Daily Weather History Graph

Search for Another Location

Airport or City:

Trip Planner

Search our weather history database for the weather conditions in past years. The results will help you decide how hot, cold, wet, or windy it might be!

Date:

Astronomy

Feb. 09, 2013 Rise Set
Actual Time 6:04 AM CST 5:48 PM CST
Civil Twilight 5:42 AM CST 6:10 PM CST
Nautical Twilight 5:17 AM CST 6:35 PM CST
Astronomical Twilight 4:52 AM CST 7:00 PM CST
Moon 5:17 AM CST (2/9) 5:23 PM CST (2/9)
Length of Visible Light 12h 28m
Length of Day
11h 44m
Waning Crescent, 0% of the Moon is Illuminated
Feb 9
Waning Crescent
Feb 10
New
Feb 17
First Quarter
Feb 25
Full
Mar 4
Last Quarter

Hourly Weather History & Observations

Time (CST) Temp. Heat Index Dew Point Humidity Pressure Visibility Wind Dir Wind Speed Gust Speed Precip Events Conditions
6:00 AM 78 °F - 63 °F 50% 29.87 in 12 mi ENE 17.3 mph - -  
6:00 AM 78.8 °F - 62.6 °F 57% 29.86 in - ENE 17.3 mph - N/A   Clear
7:00 AM 77.0 °F - 62.6 °F 61% 29.87 in - NE 11.5 mph - N/A   Clear
8:00 AM 84.2 °F 85.6 °F 64.4 °F 51% 29.88 in - ENE 17.3 mph - N/A   Clear
9:00 AM 85 °F - 63 °F 37% 29.91 in 12 mi ENE 20.7 mph - -  
9:00 AM 86.0 °F 86.6 °F 62.6 °F 45% 29.89 in - ENE 20.7 mph - N/A   Clear
10:00 AM 86.0 °F 87.3 °F 64.4 °F 48% 29.89 in 6.2 mi East 19.6 mph - N/A   Partly Cloudy
10:48 AM 87.8 °F - -0.4 °F 4% 29.87 in 6.2 mi ENE 27.6 mph 40.3 mph N/A   Partly Cloudy
11:00 AM 87.8 °F 89.4 °F 64.4 °F 46% 29.87 in 6.2 mi ENE 26.5 mph 39.1 mph N/A   Partly Cloudy
12:00 PM 89 °F - 61 °F 29% 29.86 in 12 mi ENE 29.9 mph - -   Scattered Clouds
12:00 PM 89.6 °F 89.5 °F 60.8 °F 38% 29.85 in 6.2 mi ENE 29.9 mph 41.4 mph N/A   Partly Cloudy
1:00 PM 91.4 °F 91.4 °F 60.8 °F 36% 29.83 in 6.2 mi NE 24.2 mph - N/A   Partly Cloudy
2:00 PM 91.4 °F 91.4 °F 60.8 °F 36% 29.81 in 6.2 mi ENE 18.4 mph - N/A   Partly Cloudy
3:00 PM 91 °F - 60 °F 26% 29.81 in 12 mi ENE 20.7 mph - -   Scattered Clouds
3:00 PM 91.4 °F 91.4 °F 60.8 °F 36% 29.79 in 6.2 mi ENE 20.7 mph - N/A   Partly Cloudy
4:00 PM 89.6 °F 90.1 °F 62.6 °F 40% 29.78 in 6.2 mi ENE 20.7 mph 32.2 mph N/A   Scattered Clouds
5:00 PM 87.8 °F 88.5 °F 62.6 °F 43% 29.79 in 6.2 mi ENE 20.7 mph - N/A   Scattered Clouds
6:00 PM 83 °F - 63 °F 40% 29.82 in 12 mi ENE 18.4 mph - -   Clear
6:00 PM 82.4 °F 83.4 °F 62.6 °F 51% 29.81 in - ENE 18.4 mph - N/A   Clear
7:00 PM 80.6 °F 81.8 °F 62.6 °F 54% 29.83 in - ENE 18.4 mph 33.4 mph N/A   Clear
8:00 PM 78.8 °F - 62.6 °F 57% 29.86 in - ENE 20.7 mph - N/A   Clear